Time,TemperatureF,DewpointF,PressureIn,WindDirection,WindDirectionDegrees,WindSpeedMPH,WindSpeedGustMPH,Humidity,HourlyPrecipIn,Conditions,Clouds,dailyrainin,SoftwareType,DateUTC
2013-02-19 00:02:00,46.9,43.0,29.95,North,352,3.0,7.0,85,0.00,,,0.00,weatherlink.com 1.10,2013-02-19 06:02:00,
2013-02-19 00:17:00,46.6,41.0,29.96,North,354,5.0,9.0,81,0.00,,,0.00,weatherlink.com 1.10,2013-02-19 06:17:00,
2013-02-19 00:33:00,46.3,41.0,29.97,East,101,1.0,6.0,82,0.00,,,0.00,weatherlink.com 1.10,2013-02-19 06:33:00,
2013-02-19 00:47:00,45.8,40.0,29.98,North,356,0.0,11.0,81,0.00,,,0.00,weatherlink.com 1.10,2013-02-19 06:47:00,
2013-02-19 01:03:00,45.3,40.0,29.98,NNW,328,1.0,9.0,80,0.00,,,0.00,weatherlink.com 1.10,2013-02-19 07:03:00,
2013-02-19 01:18:00,44.7,38.0,29.99,West,281,7.0,7.0,78,0.00,,,0.00,weatherlink.com 1.10,2013-02-19 07:18:00,
2013-02-19 01:33:00,43.8,38.0,30.00,WSW,253,5.0,7.0,79,0.00,,,0.00,weatherlink.com 1.10,2013-02-19 07:33:00,
2013-02-19 01:48:00,43.3,38.0,30.00,NE,41,1.0,7.0,80,0.00,,,0.00,weatherlink.com 1.10,2013-02-19 07:48:00,
2013-02-19 02:03:00,42.8,37.0,30.01,WNW,294,2.0,3.0,80,0.00,,,0.00,weatherlink.com 1.10,2013-02-19 08:03:00,
2013-02-19 02:18:00,42.6,37.0,30.02,North,356,1.0,7.0,81,0.00,,,0.00,weatherlink.com 1.10,2013-02-19 08:18:00,
2013-02-19 02:33:00,42.3,37.0,30.02,WSW,247,0.0,6.0,81,0.00,,,0.00,weatherlink.com 1.10,2013-02-19 08:33:00,
2013-02-19 02:48:00,42.0,37.0,30.02,NNW,328,1.0,4.0,81,0.00,,,0.00,weatherlink.com 1.10,2013-02-19 08:48:00,
2013-02-19 03:03:00,41.7,36.0,30.02,WNW,285,0.0,5.0,81,0.00,,,0.00,weatherlink.com 1.10,2013-02-19 09:03:00,
2013-02-19 03:18:00,41.5,36.0,30.04,NNE,16,2.0,8.0,81,0.00,,,0.00,weatherlink.com 1.10,2013-02-19 09:18:00,
2013-02-19 03:33:00,41.7,36.0,30.04,East,79,7.0,8.0,80,0.00,,,0.00,weatherlink.com 1.10,2013-02-19 09:33:00,
2013-02-19 03:48:00,41.6,36.0,30.05,SW,222,2.0,9.0,80,0.00,,,0.00,weatherlink.com 1.10,2013-02-19 09:48:00,
2013-02-19 04:03:00,41.1,35.0,30.06,NNE,12,2.0,9.0,79,0.00,,,0.00,weatherlink.com 1.10,2013-02-19 10:03:00,
2013-02-19 04:19:00,40.0,33.0,30.07,North,4,1.0,8.0,76,0.00,,,0.00,weatherlink.com 1.10,2013-02-19 10:19:00,
2013-02-19 04:33:00,38.9,32.0,30.08,NW,318,0.0,7.0,77,0.00,,,0.00,weatherlink.com 1.10,2013-02-19 10:33:00,
2013-02-19 04:48:00,38.2,32.0,30.09,SW,220,0.0,7.0,78,0.00,,,0.00,weatherlink.com 1.10,2013-02-19 10:48:00,
2013-02-19 05:03:00,37.6,31.0,30.10,NNW,330,3.0,8.0,78,0.00,,,0.00,weatherlink.com 1.10,2013-02-19 11:03:00,
2013-02-19 05:19:00,37.2,31.0,30.11,North,351,2.0,7.0,78,0.00,,,0.00,weatherlink.com 1.10,2013-02-19 11:19:00,
2013-02-19 05:34:00,36.7,31.0,30.12,WNW,298,2.0,5.0,79,0.00,,,0.00,weatherlink.com 1.10,2013-02-19 11:34:00,
2013-02-19 05:49:00,36.5,31.0,30.12,NNE,20,1.0,5.0,80,0.00,,,0.00,weatherlink.com 1.10,2013-02-19 11:49:00,
2013-02-19 06:04:00,35.8,31.0,30.13,SW,226,1.0,5.0,82,0.00,,,0.00,weatherlink.com 1.10,2013-02-19 12:04:00,
2013-02-19 06:19:00,35.2,31.0,30.14,WNW,283,1.0,3.0,83,0.00,,,0.00,weatherlink.com 1.10,2013-02-19 12:19:00,
2013-02-19 06:34:00,34.6,30.0,30.15,SSE,149,0.0,3.0,83,0.00,,,0.00,weatherlink.com 1.10,2013-02-19 12:34:00,
2013-02-19 06:49:00,34.4,29.0,30.16,WNW,283,4.0,4.0,82,0.00,,,0.00,weatherlink.com 1.10,2013-02-19 12:49:00,
2013-02-19 07:04:00,34.4,29.0,30.16,WNW,288,1.0,5.0,80,0.00,,,0.00,weatherlink.com 1.10,2013-02-19 13:04:00,
2013-02-19 07:19:00,34.6,29.0,30.17,WNW,297,2.0,5.0,79,0.00,,,0.00,weatherlink.com 1.10,2013-02-19 13:19:00,
2013-02-19 07:34:00,35.4,30.0,30.18,NNE,29,0.0,3.0,79,0.00,,,0.00,weatherlink.com 1.10,2013-02-19 13:34:00,
2013-02-19 07:49:00,36.9,30.0,30.18,NE,56,1.0,4.0,75,0.00,,,0.00,weatherlink.com 1.10,2013-02-19 13:49:00,
2013-02-19 08:04:00,38.0,30.0,30.19,North,9,1.0,3.0,73,0.00,,,0.00,weatherlink.com 1.10,2013-02-19 14:04:00,
2013-02-19 08:19:00,38.9,30.0,30.20,SW,219,1.0,4.0,71,0.00,,,0.00,weatherlink.com 1.10,2013-02-19 14:19:00,
2013-02-19 08:34:00,39.4,30.0,30.20,WSW,248,1.0,6.0,69,0.00,,,0.00,weatherlink.com 1.10,2013-02-19 14:34:00,
2013-02-19 08:49:00,39.6,29.0,30.21,NNE,23,3.0,7.0,66,0.00,,,0.00,weatherlink.com 1.10,2013-02-19 14:49:00,
2013-02-19 09:04:00,40.1,28.0,30.22,NNW,348,2.0,6.0,62,0.00,,,0.00,weatherlink.com 1.10,2013-02-19 15:04:00,
2013-02-19 09:20:00,40.2,27.0,30.23,NNW,340,4.0,10.0,60,0.00,,,0.00,weatherlink.com 1.10,2013-02-19 15:20:00,
2013-02-19 09:34:00,41.0,28.0,30.23,NW,315,4.0,9.0,60,0.00,,,0.00,weatherlink.com 1.10,2013-02-19 15:34:00,
2013-02-19 09:49:00,41.4,27.0,30.23,South,191,2.0,10.0,56,0.00,,,0.00,weatherlink.com 1.10,2013-02-19 15:49:00,
2013-02-19 10:05:00,41.6,27.0,30.24,NNW,334,4.0,9.0,57,0.00,,,0.00,weatherlink.com 1.10,2013-02-19 16:05:00,
2013-02-19 10:19:00,42.6,27.0,30.24,East,94,3.0,8.0,54,0.00,,,0.00,weatherlink.com 1.10,2013-02-19 16:19:00,
2013-02-19 10:35:00,43.4,29.0,30.24,NNW,332,3.0,11.0,57,0.00,,,0.00,weatherlink.com 1.10,2013-02-19 16:35:00,
2013-02-19 10:50:00,44.2,28.0,30.24,NW,314,4.0,8.0,54,0.00,,,0.00,weatherlink.com 1.10,2013-02-19 16:50:00,
2013-02-19 11:04:00,44.5,28.0,30.24,NW,315,5.0,7.0,52,0.00,,,0.00,weatherlink.com 1.10,2013-02-19 17:04:00,
2013-02-19 11:19:00,44.5,28.0,30.24,WSW,255,6.0,11.0,53,0.00,,,0.00,weatherlink.com 1.10,2013-02-19 17:19:00,
2013-02-19 11:34:00,45.3,28.0,30.23,North,349,4.0,10.0,51,0.00,,,0.00,weatherlink.com 1.10,2013-02-19 17:34:00,
2013-02-19 11:49:00,46.1,28.0,30.24,NW,316,2.0,11.0,49,0.00,,,0.00,weatherlink.com 1.10,2013-02-19 17:49:00,
2013-02-19 12:05:00,46.0,29.0,30.23,NNW,328,2.0,11.0,51,0.00,,,0.00,weatherlink.com 1.10,2013-02-19 18:05:00,
2013-02-19 12:19:00,46.7,28.0,30.23,ENE,68,2.0,11.0,49,0.00,,,0.00,weatherlink.com 1.10,2013-02-19 18:19:00,
2013-02-19 12:34:00,47.4,28.0,30.23,West,280,4.0,11.0,48,0.00,,,0.00,weatherlink.com 1.10,2013-02-19 18:34:00,
2013-02-19 12:49:00,47.6,28.0,30.23,SSW,208,3.0,15.0,46,0.00,,,0.00,weatherlink.com 1.10,2013-02-19 18:49:00,
2013-02-19 13:05:00,48.0,29.0,30.23,West,260,4.0,14.0,48,0.00,,,0.00,weatherlink.com 1.10,2013-02-19 19:05:00,
2013-02-19 13:20:00,47.7,28.0,30.22,WNW,302,7.0,11.0,47,0.00,,,0.00,weatherlink.com 1.10,2013-02-19 19:20:00,
2013-02-19 13:35:00,47.9,27.0,30.22,WNW,301,4.0,13.0,45,0.00,,,0.00,weatherlink.com 1.10,2013-02-19 19:35:00,
2013-02-19 13:50:00,48.3,28.0,30.22,ENE,75,1.0,10.0,46,0.00,,,0.00,weatherlink.com 1.10,2013-02-19 19:50:00,
2013-02-19 14:05:00,48.1,27.0,30.23,WSW,255,9.0,12.0,44,0.00,,,0.00,weatherlink.com 1.10,2013-02-19 20:05:00,
2013-02-19 14:20:00,48.1,28.0,30.23,SSE,155,2.0,15.0,45,0.00,,,0.00,weatherlink.com 1.10,2013-02-19 20:20:00,
2013-02-19 14:35:00,48.8,27.0,30.23,WNW,290,2.0,8.0,43,0.00,,,0.00,weatherlink.com 1.10,2013-02-19 20:35:00,
2013-02-19 14:50:00,48.8,26.0,30.23,South,169,1.0,9.0,42,0.00,,,0.00,weatherlink.com 1.10,2013-02-19 20:50:00,
2013-02-19 15:05:00,49.1,25.0,30.23,WNW,287,6.0,12.0,39,0.00,,,0.00,weatherlink.com 1.10,2013-02-19 21:05:00,
2013-02-19 15:20:00,49.0,25.0,30.23,WSW,252,7.0,11.0,40,0.00,,,0.00,weatherlink.com 1.10,2013-02-19 21:20:00,
2013-02-19 15:35:00,48.7,26.0,30.24,North,4,2.0,11.0,42,0.00,,,0.00,weatherlink.com 1.10,2013-02-19 21:35:00,
2013-02-19 15:50:00,48.3,27.0,30.24,WSW,257,3.0,10.0,43,0.00,,,0.00,weatherlink.com 1.10,2013-02-19 21:50:00,
2013-02-19 16:05:00,48.9,27.0,30.24,West,266,3.0,8.0,43,0.00,,,0.00,weatherlink.com 1.10,2013-02-19 22:05:00,
2013-02-19 16:21:00,49.1,27.0,30.23,WSW,248,3.0,7.0,43,0.00,,,0.00,weatherlink.com 1.10,2013-02-19 22:21:00,
2013-02-19 16:35:00,48.9,26.0,30.23,ESE,108,2.0,9.0,41,0.00,,,0.00,weatherlink.com 1.10,2013-02-19 22:35:00,
2013-02-19 16:50:00,48.4,25.0,30.23,West,278,2.0,6.0,40,0.00,,,0.00,weatherlink.com 1.10,2013-02-19 22:50:00,
2013-02-19 17:05:00,47.8,26.0,30.23,ESE,112,1.0,7.0,42,0.00,,,0.00,weatherlink.com 1.10,2013-02-19 23:05:00,
2013-02-19 17:20:00,47.4,26.0,30.22,West,279,1.0,5.0,43,0.00,,,0.00,weatherlink.com 1.10,2013-02-19 23:20:00,
2013-02-19 17:35:00,45.8,25.0,30.22,NNW,330,1.0,6.0,45,0.00,,,0.00,weatherlink.com 1.10,2013-02-19 23:35:00,
2013-02-19 17:50:00,44.7,24.0,30.22,WNW,290,0.0,4.0,45,0.00,,,0.00,weatherlink.com 1.10,2013-02-19 23:50:00,
2013-02-19 18:05:00,43.8,24.0,30.22,SW,233,0.0,4.0,46,0.00,,,0.00,weatherlink.com 1.10,2013-02-20 00:05:00,
2013-02-19 18:20:00,42.4,24.0,30.22,WNW,287,0.0,1.0,48,0.00,,,0.00,weatherlink.com 1.10,2013-02-20 00:20:00,
2013-02-19 18:35:00,41.1,24.0,30.23,WNW,286,0.0,0.0,51,0.00,,,0.00,weatherlink.com 1.10,2013-02-20 00:35:00,
2013-02-19 18:50:00,39.4,24.0,30.22,WNW,287,0.0,0.0,54,0.00,,,0.00,weatherlink.com 1.10,2013-02-20 00:50:00,
2013-02-19 19:05:00,39.0,25.0,30.23,WNW,286,0.0,0.0,57,0.00,,,0.00,weatherlink.com 1.10,2013-02-20 01:05:00,
2013-02-19 19:20:00,38.4,27.0,30.23,WNW,287,0.0,0.0,65,0.00,,,0.00,weatherlink.com 1.10,2013-02-20 01:20:00,
2013-02-19 19:35:00,37.7,27.0,30.24,WNW,285,0.0,0.0,66,0.00,,,0.00,weatherlink.com 1.10,2013-02-20 01:35:00,
2013-02-19 19:50:00,36.6,27.0,30.25,WNW,285,0.0,0.0,68,0.00,,,0.00,weatherlink.com 1.10,2013-02-20 01:50:00,
2013-02-19 20:05:00,35.7,27.0,30.25,WNW,285,0.0,0.0,71,0.00,,,0.00,weatherlink.com 1.10,2013-02-20 02:05:00,
2013-02-19 20:20:00,34.6,27.0,30.25,WNW,285,0.0,0.0,74,0.00,,,0.00,weatherlink.com 1.10,2013-02-20 02:20:00,
2013-02-19 20:35:00,33.3,27.0,30.25,WNW,285,0.0,0.0,76,0.00,,,0.00,weatherlink.com 1.10,2013-02-20 02:35:00,
2013-02-19 20:50:00,32.7,27.0,30.25,WNW,285,0.0,0.0,78,0.00,,,0.00,weatherlink.com 1.10,2013-02-20 02:50:00,
2013-02-19 21:05:00,32.2,27.0,30.25,WNW,285,0.0,0.0,81,0.00,,,0.00,weatherlink.com 1.10,2013-02-20 03:05:00,
2013-02-19 21:20:00,31.7,27.0,30.26,WNW,285,0.0,0.0,81,0.00,,,0.00,weatherlink.com 1.10,2013-02-20 03:20:00,
2013-02-19 21:36:00,34.1,25.0,30.26,West,280,0.0,2.0,69,0.00,,,0.00,weatherlink.com 1.10,2013-02-20 03:36:00,
2013-02-19 21:51:00,35.5,25.0,30.26,WNW,288,0.0,1.0,65,0.00,,,0.00,weatherlink.com 1.10,2013-02-20 03:51:00,
2013-02-19 22:06:00,35.3,26.0,30.27,West,269,0.0,1.0,68,0.00,,,0.00,weatherlink.com 1.10,2013-02-20 04:06:00,
2013-02-19 22:21:00,33.0,27.0,30.27,West,269,0.0,0.0,78,0.00,,,0.00,weatherlink.com 1.10,2013-02-20 04:21:00,
2013-02-19 22:36:00,31.6,27.0,30.27,West,269,0.0,0.0,82,0.00,,,0.00,weatherlink.com 1.10,2013-02-20 04:36:00,
2013-02-19 22:51:00,32.9,23.0,30.26,WNW,284,0.0,1.0,68,0.00,,,0.00,weatherlink.com 1.10,2013-02-20 04:51:00,
2013-02-19 23:06:00,33.9,22.0,30.26,West,262,0.0,1.0,62,0.00,,,0.00,weatherlink.com 1.10,2013-02-20 05:06:00,
2013-02-19 23:21:00,34.3,22.0,30.27,ENE,59,1.0,1.0,60,0.00,,,0.00,weatherlink.com 1.10,2013-02-20 05:21:00,
2013-02-19 23:36:00,34.5,21.0,30.27,WNW,297,0.0,1.0,58,0.00,,,0.00,weatherlink.com 1.10,2013-02-20 05:36:00,
2013-02-19 23:51:00,32.0,24.0,30.28,East,79,1.0,1.0,72,0.00,,,0.00,weatherlink.com 1.10,2013-02-20 05:51:00,